GFSGBSN_925_temp_159.txt.gz
Temp
14 14 14 14 14 14 14 14 14 14 14 14 14 14 14 14 14 13 14 13 14 14 14 14 15 15 17 23 25 23 22 22 22 24 26 27 27 29 29 30 31 29 30 31 31 31 30
14 14 14 14 14 14 14 14 14 14 14 14 14 14 14 14 13 13 13 13 13 13 14 14 14 14 18 20 24 23 22 22 24 25 26 27 28 28 27 28 29 30 29 30 30 31 31
14 14 13 14 14 14 14 14 14 14 14 13 13 13 13 13 13 13 12 12 12 12 13 13 13 14 18 20 23 24 23 22 23 24 26 26 26 26 28 28 29 28 28 30 31 31 30
14 13 13 13 13 14 13 13 13 13 13 13 13 13 13 13 13 13 12 12 12 11 12 13 13 14 17 20 21 22 22 23 23 23 24 25 25 26 26 28 27 27 29 29 32 31 31
14 14 14 13 13 13 13 13 13 13 13 13 13 13 13 13 13 12 12 12 12 12 12 12 13 16 18 21 21 22 22 23 24 23 23 23 24 25 27 25 27 29 28 30 31 31 30
13 13 14 13 13 13 12 13 12 12 12 13 13 13 13 13 13 12 12 11 11 11 11 12 15 17 19 22 24 23 23 23 24 24 24 23 24 25 26 27 26 29 30 30 29 31 29
13 13 13 13 13 13 12 12 12 12 12 12 12 12 12 12 12 12 9 11 14 16 14 19 21 21 24 23 21 23 23 23 24 24 24 24 24 25 28 29 28 28 28 28 30 31 29
13 13 13 12 13 12 12 13 12 12 12 12 12 12 12 11 10 9 10 15 18 15 17 19 19 21 22 22 21 24 23 23 23 24 25 26 24 27 29 28 27 27 27 27 29 30 29
12 12 12 12 12 12 12 12 11 11 11 10 11 10 9 8 8 9 10 14 14 14 17 20 22 21 22 22 21 22 24 24 24 24 25 25 26 28 27 26 26 26 26 27 27 29 29
10 10 10 11 11 11 11 11 11 11 10 10 10 9 9 9 9 12 14 14 13 13 17 21 20 20 21 21 19 22 23 24 23 23 24 25 27 26 26 26 26 26 28 27 26 26 26
8 8 9 9 9 9 9 9 9 9 10 10 9 9 10 9 9 13 13 12 12 12 17 22 20 20 20 19 21 22 22 23 21 23 23 23 25 24 24 25 27 25 26 25 26 25 26
7 7 8 9 9 9 9 9 9 9 9 9 9 9 9 9 9 9 10 11 11 13 16 21 21 19 19 20 21 21 21 22 23 22 23 23 26 25 25 25 25 25 24 24 24 25 23
7 7 7 8 8 9 9 9 9 9 9 9 8 8 8 8 10 9 9 9 11 14 22 21 21 20 20 21 21 21 20 20 21 20 21 23 24 25 24 23 24 23 23 22 23 23 24
6 7 7 7 7 8 8 8 9 9 9 8 8 8 7 9 8 8 9 10 12 18 21 21 21 21 20 22 21 22 22 22 22 23 23 24 23 25 25 22 23 23 24 23 22 23 25
6 6 6 7 7 7 7 8 8 8 9 8 8 7 7 7 8 9 10 10 15 18 21 20 19 19 21 22 21 22 22 23 24 24 21 23 23 24 23 24 23 23 22 24 22 22 20
5 5 6 6 6 6 6 7 7 7 8 8 7 7 7 7 7 10 9 11 15 18 17 17 18 19 19 21 21 21 22 22 22 22 22 22 20 23 23 22 23 22 22 21 20 17 19
4 5 5 5 5 5 6 6 6 7 7 6 6 7 5 6 7 9 9 10 15 16 16 16 17 18 18 20 19 20 20 19 19 20 21 21 21 21 21 21 22 22 21 20 21 20 19
3 3 4 4 5 5 5 6 6 6 7 6 4 5 5 5 6 5 9 12 13 16 16 15 16 16 16 17 17 18 18 18 18 19 19 20 19 19 21 21 21 21 21 21 19 19 20
3 3 3 3 4 4 5 5 5 6 6 7 5 3 4 5 7 7 9 10 12 14 15 15 16 17 17 16 16 17 17 15 16 17 18 18 16 17 19 19 19 19 17 17 18 18 17
2 3 3 3 3 3 4 4 5 5 6 7 7 6 6 4 3 6 8 9 9 12 14 15 14 16 16 16 17 16 16 15 16 15 13 15 14 14 15 11 10 11 11 12 12 13 15
2 2 2 2 3 3 3 3 4 5 6 6 7 6 9 6 6 6 7 7 8 9 11 12 10 13 14 14 16 16 17 16 16 14 15 16 15 16 16 15 13 13 14 14 12 13 11
2 2 2 2 2 2 3 3 3 4 5 7 5 6 7 9 8 7 5 7 7 9 7 9 10 13 14 14 14 15 16 16 16 17 15 15 14 15 15 16 16 14 15 15 16 16 14
2 2 2 2 2 2 2 3 3 4 4 6 6 6 8 8 8 7 7 8 8 9 9 8 6 7 11 12 12 12 12 13 14 15 15 14 14 14 13 16 16 14 16 17 17 18 17
2 2 2 2 2 2 2 2 3 3 4 5 6 9 7 7 9 9 8 8 8 9 7 9 8 7 9 11 12 13 13 14 14 15 16 15 15 14 13 15 12 16 19 19 17 18 19
2 2 2 2 2 2 2 2 2 2 3 5 7 8 6 6 9 10 10 9 9 7 6 7 9 10 10 8 8 10 11 11 12 14 15 16 15 12 12 14 15 17 18 17 16 16 18
2 2 2 2 2 2 2 2 2 2 2 4 6 6 6 6 7 9 9 9 9 9 9 8 9 9 8 6 6 8 10 12 13 13 15 15 15 13 12 12 13 16 19 18 18 14 18
2 2 2 2 2 2 2 2 2 2 2 3 4 5 6 5 8 9 8 8 9 9 8 9 10 8 8 7 7 8 10 13 11 13 14 13 13 12 13 12 15 18 19 17 13 15 17
2 2 2 2 2 2 2 2 2 2 2 3 5 4 5 4 7 8 8 8 8 8 8 9 8 8 6 6 7 9 9 12 12 14 14 13 12 12 12 12 12 18 18 15 16 17 17
1 2 2 2 2 2 2 2 2 2 2 2 4 4 5 5 6 6 6 7 8 9 9 9 9 9 8 7 7 8 8 9 12 11 15 11 13 13 14 14 16 18 17 18 17 17 17

GFSGBSN_925_temp_162.txt.gz
Temp
14 15 14 14 14 14 14 14 14 14 14 14 14 14 14 14 14 14 14 14 13 13 14 14 14 15 16 21 23 24 23 23 24 24 26 27 27 28 28 30 31 31 32 32 32 32 32
14 14 14 14 14 14 14 14 14 14 14 14 14 14 14 14 14 14 13 13 13 13 13 14 14 14 17 19 24 24 24 24 24 25 26 27 28 28 27 27 28 30 31 30 31 31 31
14 14 14 14 14 14 14 14 14 14 14 14 14 14 13 13 13 13 13 12 12 12 12 13 13 13 16 18 22 22 23 24 24 24 26 26 27 27 27 27 29 29 28 29 30 31 30
13 14 14 14 14 13 13 13 14 13 13 13 13 13 13 13 13 13 13 12 12 12 12 12 13 12 16 19 20 22 23 24 24 24 24 25 25 26 25 27 27 27 28 27 30 32 32
14 14 14 14 13 13 13 13 13 13 13 13 13 13 13 13 13 13 12 12 12 12 12 12 12 14 17 20 21 22 22 23 24 25 25 25 25 24 25 25 25 26 25 28 30 33 32
13 13 13 14 14 13 13 12 13 13 13 13 13 13 13 13 13 12 12 12 12 11 12 11 13 16 18 21 24 24 24 24 25 25 25 24 24 23 24 24 24 27 28 29 30 32 31
13 13 13 13 13 13 13 13 13 12 12 12 12 13 12 12 12 12 12 11 12 14 13 17 19 19 24 23 23 24 25 25 25 25 23 24 23 23 25 27 27 28 28 28 30 31 30
13 14 13 13 13 13 13 12 12 12 12 12 12 12 12 12 12 12 10 12 15 15 14 18 18 20 21 22 22 24 25 24 23 22 24 24 23 26 27 28 28 29 28 27 29 30 30
12 13 13 13 13 13 13 12 12 12 12 12 12 12 12 11 10 8 9 12 14 13 13 17 20 20 21 22 22 23 25 24 24 23 24 24 26 27 27 27 27 27 26 26 27 28 29
11 12 12 12 12 12 12 12 12 12 12 11 11 11 10 9 8 10 10 12 12 12 13 19 22 22 23 23 22 24 24 24 24 23 24 25 27 27 27 27 27 25 28 28 27 27 26
8 8 9 11 12 11 11 11 11 11 11 10 10 9 9 10 11 13 11 13 12 12 15 24 22 22 23 22 23 23 23 23 22 23 23 23 25 25 25 26 27 26 27 27 26 25 25
7 7 7 7 9 10 10 10 10 10 10 9 8 8 8 8 9 9 10 11 12 12 15 22 22 20 20 21 22 23 22 24 24 23 23 23 26 25 26 26 26 26 26 26 25 24 22
7 7 7 7 7 8 9 9 9 9 9 8 8 8 8 9 9 9 9 10 11 13 23 21 21 22 21 21 21 22 21 21 21 20 20 22 23 25 25 24 25 25 23 22 22 21 21
6 7 7 7 7 7 7 8 9 9 9 9 8 8 8 8 9 9 9 9 11 18 20 22 22 23 21 23 23 23 22 22 22 22 23 23 23 24 25 25 24 24 23 22 20 22 24
6 6 6 7 7 7 7 8 9 8 9 8 8 7 7 8 8 8 9 10 13 18 20 15 18 20 21 22 23 23 23 22 24 24 21 22 24 25 25 26 25 23 22 24 22 23 20
6 6 6 6 6 6 7 7 7 7 8 8 7 7 7 8 8 8 9 11 14 19 19 18 16 19 20 21 21 22 22 22 23 25 24 22 21 24 24 23 24 23 24 21 19 16 19
4 5 5 5 6 6 6 6 6 7 8 7 7 7 6 6 7 8 9 11 14 16 17 16 17 18 19 20 21 20 21 21 21 22 22 21 20 21 23 22 21 22 21 22 22 17 17
4 4 4 4 5 5 5 6 6 5 6 7 5 6 5 6 6 5 9 12 14 16 17 16 16 16 16 18 18 19 19 17 18 19 19 18 19 18 20 23 22 21 21 21 18 18 19
3 3 4 4 4 4 5 5 5 6 6 5 3 3 4 5 7 7 9 11 13 14 16 16 16 17 18 17 16 17 18 17 17 17 17 18 16 16 17 19 21 17 16 16 16 18 17
3 3 3 3 4 4 4 5 5 6 5 5 5 6 4 3 3 6 8 9 10 12 13 15 16 17 17 17 18 17 18 19 16 17 13 16 16 15 15 13 12 11 12 13 12 12 14
2 2 2 3 3 3 4 4 4 5 5 6 6 5 8 6 6 6 7 7 9 8 8 11 10 13 15 15 15 16 17 18 17 15 15 16 15 16 17 17 13 13 13 13 12 13 11
2 2 2 2 2 3 3 3 4 5 5 6 6 7 7 6 7 7 5 7 8 8 7 7 7 7 8 10 12 14 13 15 15 16 15 16 14 15 15 17 16 14 15 16 15 15 15
2 2 2 2 2 2 2 3 3 4 5 5 6 7 7 6 6 7 7 8 9 9 8 9 7 7 8 8 7 8 10 12 12 13 13 13 14 14 13 16 16 14 15 17 17 17 17
2 3 2 2 2 2 2 2 3 3 4 6 6 7 6 7 8 8 9 8 8 8 7 9 10 8 9 10 10 11 11 11 13 14 15 14 13 13 13 14 11 15 18 17 17 19 19
2 2 2 3 2 2 2 2 2 3 4 4 8 8 6 7 9 10 11 9 9 9 7 9 10 11 8 8 8 10 11 11 11 14 15 15 14 13 12 13 14 16 18 17 17 17 19
2 2 2 2 2 2 2 2 2 2 3 4 6 7 7 6 7 9 9 10 10 10 9 8 10 10 9 7 7 7 9 12 13 13 15 15 15 13 11 11 12 15 18 19 19 12 16
2 2 2 2 2 2 2 2 2 2 2 3 6 6 7 5 8 9 9 9 10 10 9 10 10 8 8 6 7 7 7 11 9 10 13 13 13 12 11 12 14 17 19 19 14 15 19
1 2 2 2 2 2 2 2 2 2 2 3 5 5 6 5 7 8 9 8 9 9 8 10 9 9 6 5 6 7 8 10 11 12 12 13 11 12 12 11 11 17 18 13 14 16 18
2 2 1 2 2 2 2 2 2 2 2 2 4 5 5 5 6 7 6 7 8 9 9 9 9 9 8 7 8 8 7 8 9 9 13 11 12 11 13 13 16 17 17 18 18 17 18

GFSGBSN_925_temp_168.txt.gz
Temp
15 14 14 14 14 14 14 14 14 14 14 14 14 14 14 14 14 14 14 14 14 14 14 13 13 13 15 15 17 22 21 21 22 22 23 23 22 23 23 23 23 23 24 24 24 24 24
15 15 14 14 14 14 14 14 14 14 14 14 14 14 14 14 14 14 14 14 14 13 13 12 12 12 13 13 19 21 21 21 22 21 22 22 22 22 22 23 22 23 23 23 23 24 24
14 14 14 14 14 14 14 14 14 14 14 14 14 13 14 14 14 14 14 14 13 13 13 12 11 11 12 14 19 21 21 20 21 20 20 22 23 22 21 21 22 22 21 23 24 24 24
13 14 14 14 14 14 14 14 14 13 13 13 13 13 13 13 14 13 13 13 12 12 12 12 12 11 12 16 17 17 19 18 19 20 20 21 23 21 21 21 21 21 21 20 24 25 25
13 12 13 13 13 13 13 13 13 13 13 13 13 13 13 13 13 13 13 12 12 12 12 12 12 12 13 16 17 20 19 16 18 20 21 22 22 20 21 19 18 19 18 20 22 24 24
12 13 13 13 12 13 12 13 13 13 13 13 13 13 13 13 13 12 12 12 12 12 12 11 11 12 13 17 20 21 22 20 19 20 21 21 20 19 18 18 18 18 19 19 20 23 23
11 11 11 12 12 12 12 13 13 13 13 12 12 12 12 12 12 12 12 12 11 10 9 13 13 14 17 19 20 21 21 21 20 20 19 20 18 17 19 20 20 20 20 20 21 23 23
11 11 11 12 12 12 12 12 13 13 13 13 12 12 12 12 12 12 12 12 13 12 12 12 13 14 15 17 16 18 19 20 20 19 19 19 18 19 21 20 20 20 20 20 22 23 24
11 11 11 12 12 12 13 13 13 13 13 13 12 12 12 12 11 11 11 11 12 13 12 14 15 15 15 16 15 16 18 19 19 19 19 19 20 21 20 20 20 20 20 20 21 22 22
10 10 10 12 12 12 12 12 13 13 13 13 12 12 12 11 10 10 9 11 11 13 12 15 15 16 17 17 16 18 19 19 18 19 19 19 20 20 20 20 21 19 22 22 22 21 21
10 10 10 10 11 11 12 12 12 13 13 13 11 11 11 11 11 9 11 11 11 11 14 18 17 19 18 16 19 19 19 18 18 19 19 19 20 19 19 20 21 21 22 22 22 20 20
8 9 9 9 10 11 12 12 12 13 12 12 11 11 10 10 10 10 11 11 11 12 13 18 19 18 16 17 19 21 19 19 19 18 18 18 20 19 20 21 21 22 22 21 21 19 19
8 8 9 8 9 10 11 12 12 12 12 12 11 11 10 10 9 10 11 10 10 12 18 19 18 19 18 17 18 19 18 17 17 17 17 19 19 20 20 19 20 20 20 15 17 17 19
7 7 8 9 9 8 9 9 11 11 11 11 11 11 9 10 10 10 11 10 11 14 15 18 18 18 18 18 18 18 18 17 16 17 16 16 16 18 20 19 19 20 20 15 16 16 18
6 6 6 7 8 9 8 8 8 8 9 9 9 7 8 8 10 10 10 10 13 14 17 18 18 17 17 18 18 18 18 18 18 18 17 16 17 21 21 20 20 19 19 19 18 17 16
6 6 6 6 7 8 9 8 8 8 8 7 7 7 7 7 8 8 10 11 12 15 15 16 16 16 17 18 18 18 17 19 19 19 19 18 18 21 21 21 21 20 20 17 14 15 15
5 6 6 6 6 6 6 6 7 7 8 7 7 7 5 7 7 8 8 10 12 14 15 14 15 15 15 15 16 16 18 17 18 18 18 18 17 18 20 19 19 19 17 15 14 14 15
4 4 5 5 5 6 6 6 6 6 7 7 6 6 5 6 7 4 7 9 12 14 14 13 13 13 13 12 12 14 15 16 17 17 17 17 15 15 18 19 20 17 16 14 12 14 13
4 4 5 5 5 5 5 6 6 6 6 5 3 3 4 5 7 6 7 9 10 12 11 12 12 12 14 13 10 12 14 16 16 17 16 16 14 13 15 16 16 15 14 15 14 13 13
3 3 3 4 4 4 4 5 5 6 6 6 3 5 3 3 2 5 7 7 9 11 10 10 11 12 12 12 13 13 15 15 15 16 14 16 14 13 14 13 13 13 13 14 14 12 12
2 3 3 3 3 4 4 4 4 5 6 6 3 4 5 5 5 5 5 6 7 8 6 7 9 9 9 10 13 13 11 12 15 14 14 14 12 12 13 14 13 13 13 12 12 14 12
2 2 3 3 2 3 3 3 4 5 5 6 3 4 4 5 5 5 5 6 6 6 6 7 7 7 8 9 8 8 7 9 10 9 12 12 11 12 13 13 13 12 13 14 13 13 13
2 2 2 2 2 2 3 3 4 4 5 4 4 5 4 4 5 5 5 6 6 5 6 6 6 6 6 6 6 7 7 7 7 8 10 11 10 11 12 13 13 11 13 13 14 13 13
2 2 2 2 2 2 2 2 3 3 4 4 5 4 3 3 4 5 6 6 6 6 5 7 6 6 7 7 7 7 7 8 8 9 9 10 10 10 11 11 10 13 16 15 14 14 13
2 2 2 2 2 2 2 2 2 3 4 4 4 4 1 1 5 6 6 6 5 6 5 6 8 8 7 7 6 6 7 8 8 9 9 9 10 10 10 11 13 13 14 13 13 14 14
2 2 2 2 2 2 2 2 2 2 3 3 4 5 2 1 3 7 6 7 5 5 5 6 8 7 7 5 5 5 6 8 8 9 10 10 9 9 10 10 11 12 14 14 14 10 13
2 2 2 2 2 2 2 2 2 2 2 3 4 4 3 -1 3 6 5 4 7 5 3 6 7 6 6 2 4 5 6 8 7 8 9 8 9 9 10 10 10 11 14 14 11 11 15
2 2 2 2 2 2 2 2 2 2 2 2 4 4 4 -2 2 5 6 5 4 4 3 5 4 3 2 2 3 4 5 7 7 8 8 9 8 8 8 9 9 10 13 12 11 12 14
1 2 2 2 2 2 2 2 2 2 2 2 2 4 4 -0 2 4 5 6 6 5 4 4 4 5 4 3 2 3 4 4 5 5 8 6 8 7 8 6 8 7 7 10 9 9 10

GFSGBSN_925_temp_171.txt.gz
Temp
15 15 14 14 14 14 14 14 14 14 14 14 14 14 14 14 14 14 14 14 14 14 14 13 13 13 15 14 16 22 21 20 21 21 21 21 21 21 21 21 21 21 22 22 23 22 22
15 15 15 15 14 14 14 14 14 14 14 13 13 14 14 14 14 14 14 14 14 13 13 13 12 11 13 13 19 20 20 21 21 19 21 20 21 21 20 20 20 21 20 20 21 22 21
14 15 14 14 15 14 14 14 14 14 14 13 13 13 13 13 13 13 13 13 13 13 12 12 12 12 12 13 19 21 20 19 18 18 18 20 21 21 20 20 21 21 20 20 22 22 23
14 14 14 14 14 14 14 14 14 14 13 13 13 13 13 13 14 14 13 13 13 12 12 12 12 12 12 16 16 16 17 17 18 17 17 19 20 20 20 20 19 20 19 18 23 24 23
14 14 13 14 14 14 14 14 13 13 13 13 13 13 13 13 13 13 13 13 12 12 12 12 11 11 12 15 15 20 18 15 18 18 17 19 20 19 20 19 17 18 17 18 20 23 23
12 13 13 13 13 13 13 13 13 13 13 13 13 13 13 13 13 13 12 12 12 11 11 10 10 12 12 16 18 19 20 18 18 19 19 18 18 17 16 17 18 17 17 17 19 22 21
12 12 12 13 12 13 12 13 13 13 13 12 12 12 13 12 12 12 12 12 12 11 10 12 12 13 17 17 18 19 20 19 19 19 18 18 16 16 18 19 20 19 18 18 19 21 20
12 12 12 12 12 12 12 13 12 12 12 12 12 13 12 12 12 12 12 12 13 12 12 11 13 13 15 16 16 18 18 18 17 17 18 18 17 18 19 19 19 18 18 18 19 20 20
11 11 12 12 11 12 12 12 12 12 12 12 13 12 12 12 11 11 12 12 13 13 12 14 13 13 14 14 14 16 17 17 18 17 17 18 19 19 19 19 18 18 17 18 18 20 20
10 11 11 11 11 11 11 12 12 12 12 12 12 12 12 12 11 10 10 11 12 13 12 15 14 15 15 15 15 16 17 18 17 18 17 18 19 19 18 18 18 17 19 19 19 18 18
10 10 10 10 11 11 11 12 12 12 12 12 12 12 12 11 11 10 12 12 11 12 14 17 16 17 16 15 17 18 17 17 17 17 18 18 17 18 18 19 19 19 20 19 19 18 18
9 10 10 10 11 11 11 12 12 12 12 12 12 12 12 10 11 11 12 11 11 12 13 17 17 15 14 15 17 18 17 17 17 16 17 18 20 18 18 19 19 20 19 19 19 18 17
9 9 9 9 9 10 11 11 11 12 12 12 12 12 11 10 10 11 11 11 11 12 17 17 17 15 15 16 16 18 16 15 14 15 15 18 17 18 19 18 18 18 18 16 15 16 18
8 8 8 9 9 9 10 11 11 11 12 12 12 11 11 10 11 11 10 10 12 15 15 17 17 18 16 16 16 17 16 14 16 16 15 16 15 18 18 18 18 18 18 15 17 15 16
7 7 8 7 9 8 8 9 11 11 11 12 11 10 9 9 10 10 10 11 13 15 15 16 17 16 16 17 18 17 16 16 16 16 16 15 16 18 18 20 19 18 18 19 17 16 15
6 7 7 7 7 7 8 8 8 9 10 9 8 7 6 7 8 10 11 12 13 14 15 15 14 16 15 16 16 16 16 18 18 17 18 17 16 19 20 19 19 18 18 16 15 16 16
6 6 6 6 6 6 6 7 8 8 8 8 8 7 5 6 8 9 10 11 13 14 14 14 14 14 15 15 14 15 17 17 17 18 18 18 16 17 20 18 17 17 16 14 15 14 13
5 5 5 6 6 6 6 6 8 7 7 8 6 6 5 6 8 5 7 8 10 12 14 13 13 12 13 12 12 13 14 14 16 16 16 16 15 16 17 18 18 17 15 14 14 14 13
4 4 5 5 5 5 6 6 6 7 7 6 4 3 4 5 7 6 6 8 9 10 11 11 11 12 12 11 11 11 12 14 14 15 16 15 13 13 15 17 16 16 15 15 14 13 13
3 3 3 4 5 5 5 5 5 5 6 6 3 5 3 4 2 5 7 7 8 9 9 10 10 12 11 11 11 11 11 12 12 13 13 14 13 12 14 13 12 13 14 14 13 10 10
2 3 3 3 3 4 5 5 5 5 5 6 3 4 5 5 4 5 6 6 7 8 6 5 8 9 10 10 10 10 12 12 11 11 11 11 10 12 13 14 14 14 13 13 12 13 13
2 2 2 2 2 3 4 4 5 6 5 5 4 4 4 5 5 5 5 6 6 6 6 6 7 6 7 9 8 9 8 9 10 10 10 10 9 11 10 13 13 12 13 13 14 13 13
2 2 2 2 2 2 2 3 4 5 5 4 3 4 3 5 4 5 5 6 6 6 6 6 6 5 6 6 5 5 5 6 7 8 9 10 9 10 11 13 12 10 11 13 14 13 14
2 2 2 2 2 2 2 3 3 4 5 5 4 3 2 2 3 5 6 6 6 6 5 6 6 6 6 6 6 7 7 7 7 7 8 9 9 9 11 12 10 14 14 14 14 14 14
2 2 2 2 2 2 2 2 3 3 3 4 4 3 -1 -0 4 5 6 6 5 5 5 6 7 8 7 6 5 5 7 7 8 7 8 8 9 10 10 11 13 13 13 12 12 13 14
2 2 2 2 2 2 2 2 2 3 3 4 4 4 0 0 2 6 6 6 4 4 5 5 8 7 6 4 5 4 6 7 8 9 9 8 8 9 10 10 10 12 13 13 13 11 13
2 2 2 2 2 2 2 2 2 2 2 3 4 4 2 -1 2 5 4 4 5 4 3 5 6 6 5 2 3 4 6 8 7 7 8 7 7 8 9 10 10 7 9 12 11 10 8
2 2 2 2 2 2 2 2 2 2 2 2 3 4 3 -2 1 4 5 5 4 3 2 4 3 2 1 2 3 3 5 6 6 7 8 8 7 7 8 9 9 7 9 9 7 7 7
2 2 2 2 2 2 2 2 2 2 2 2 3 3 4 -0 1 4 4 5 6 5 3 3 3 4 2 1 2 2 4 3 5 5 7 6 7 6 7 6 7 7 7 7 6 5 7

GFSGBSN_925_temp_174.txt.gz
Temp
15 15 15 14 14 14 14 14 14 13 14 14 14 14 14 14 14 14 14 14 14 14 13 13 13 13 15 14 16 22 21 21 20 21 20 20 21 21 21 20 20 20 21 21 20 20 19
15 15 15 15 14 14 14 14 14 14 14 13 13 14 14 14 13 13 13 14 14 13 13 13 12 12 13 13 19 20 20 20 20 19 20 20 20 20 20 20 20 20 20 19 19 19 20
15 15 15 15 15 14 14 14 14 14 14 14 13 13 13 13 13 13 13 13 13 13 13 12 12 12 11 13 20 19 17 18 18 17 18 20 20 20 20 19 20 20 18 18 19 21 20
14 14 14 14 14 14 14 14 14 14 14 14 13 14 13 13 13 13 13 13 12 12 12 12 12 12 12 16 16 16 17 17 18 17 16 18 19 19 19 19 18 19 18 18 20 22 22
14 14 14 14 14 14 14 14 14 14 14 13 13 13 13 13 13 13 13 12 12 11 11 12 11 11 12 15 15 19 17 16 17 16 15 18 18 17 19 18 16 16 17 17 19 22 21
14 14 14 14 14 14 14 14 14 13 13 13 13 13 13 13 13 13 12 11 11 12 11 10 10 11 12 16 17 18 18 17 18 16 17 16 17 15 15 16 18 17 16 16 18 21 20
13 14 14 13 14 14 13 13 13 13 13 13 13 13 13 13 12 12 11 11 11 11 10 12 12 12 15 16 18 18 18 17 18 18 17 17 15 15 18 19 20 18 18 17 18 19 18
13 13 13 13 13 13 13 13 13 13 13 13 13 13 12 12 12 12 11 12 13 13 12 11 12 12 15 16 14 17 18 18 17 16 18 17 16 18 19 19 18 18 17 17 17 18 18
12 11 12 12 12 12 13 13 13 12 13 12 12 12 12 12 12 11 11 12 13 13 12 13 12 12 13 14 13 15 16 16 16 16 17 18 18 19 18 18 17 17 17 17 17 18 18
11 11 11 11 12 12 12 12 12 12 13 13 12 12 12 12 11 11 11 12 12 12 12 14 13 13 14 14 13 15 16 17 16 17 17 17 19 18 17 18 18 17 17 18 18 17 16
11 11 11 11 11 11 11 11 12 12 12 12 13 13 12 12 11 11 12 11 11 12 14 16 14 15 14 14 15 16 16 15 15 16 17 17 17 17 18 18 18 18 18 17 18 17 17
11 10 10 10 11 11 11 11 11 12 12 12 11 11 12 10 11 11 12 11 11 12 14 16 15 14 13 14 15 16 15 15 15 14 15 15 18 17 18 19 18 19 19 18 17 17 15
10 10 10 10 11 11 11 11 11 11 11 11 11 11 11 11 10 10 11 10 11 12 16 16 15 14 14 14 14 15 14 14 13 14 14 16 17 17 19 18 18 18 16 15 15 16 17
9 9 9 9 10 9 10 10 11 11 11 11 11 11 11 11 11 11 10 11 12 14 14 16 17 15 14 15 15 15 14 13 14 15 14 14 15 17 17 18 17 15 16 14 17 15 15
7 7 8 8 8 9 9 10 11 11 11 11 11 10 9 9 10 10 11 11 13 13 15 15 16 15 15 16 17 16 14 14 14 14 15 14 15 17 18 19 18 18 17 18 16 15 15
7 6 7 7 8 8 9 9 10 10 10 11 10 8 6 8 9 10 11 11 12 14 14 15 14 15 14 15 15 15 15 16 16 16 16 16 15 17 18 17 18 18 18 17 16 16 16
6 6 6 6 6 7 8 8 9 10 10 10 8 9 5 7 8 10 11 11 12 14 14 14 13 14 14 15 14 14 16 16 15 16 16 16 15 16 18 17 15 16 17 15 16 15 16
6 6 6 6 6 6 7 7 7 8 8 9 6 7 5 7 8 5 9 9 10 12 14 14 13 13 12 13 13 13 14 15 13 14 15 15 15 15 16 17 17 17 16 16 15 15 13
4 5 5 5 6 6 6 7 7 8 8 7 4 3 5 5 8 6 5 7 10 11 12 12 13 13 12 11 12 12 11 13 12 12 11 12 13 14 14 16 16 16 14 15 14 13 13
3 3 4 5 5 5 5 6 6 6 7 7 4 5 3 4 3 6 7 7 8 8 9 9 9 10 11 11 10 11 11 12 12 11 12 12 11 12 14 12 12 13 13 13 15 13 12
2 3 3 3 4 5 5 5 5 5 6 6 3 4 5 5 4 5 6 6 7 8 6 6 8 9 9 10 10 10 10 11 11 12 10 10 10 10 11 12 12 11 12 12 12 13 14
2 2 2 2 3 3 4 4 4 5 5 4 3 4 4 5 5 5 6 6 7 6 6 7 7 6 7 8 6 8 6 9 10 9 9 9 9 9 10 11 10 10 10 10 10 11 12
2 2 2 3 2 2 3 4 4 4 5 3 3 4 4 5 5 5 5 6 6 6 5 6 6 6 6 6 5 5 5 5 6 6 9 9 9 9 11 10 10 10 10 11 12 13 13
2 2 2 2 2 2 2 3 3 4 5 5 3 2 2 3 4 5 6 6 6 6 5 6 6 5 6 6 6 5 5 6 6 6 6 8 9 9 10 10 10 13 12 12 12 12 13
2 2 2 2 2 2 2 2 3 3 4 5 4 2 -1 -1 4 5 6 5 6 5 6 5 6 7 6 6 5 5 6 6 7 6 6 6 7 10 10 10 12 12 12 12 11 12 10
3 2 2 2 2 2 2 2 2 2 3 4 4 4 -0 0 1 5 5 5 4 4 4 5 7 6 6 3 3 4 6 7 8 8 8 8 7 7 9 10 10 11 9 9 13 10 8
2 2 3 2 2 2 2 2 2 2 2 3 3 4 2 -2 2 4 4 4 4 4 2 4 5 5 5 3 1 3 6 8 6 7 8 7 7 7 8 9 10 7 8 8 10 8 7
1 2 2 2 2 2 2 2 2 2 2 3 3 3 3 -2 1 4 5 4 3 3 2 4 3 2 1 3 2 2 4 6 6 7 7 7 7 7 7 8 8 7 8 7 6 6 6
1 2 2 2 2 2 2 2 2 2 2 2 3 3 3 0 2 3 4 5 5 4 2 2 3 3 1 0 0 1 2 2 5 4 7 5 6 6 6 6 7 7 8 7 6 6 6